{"data":{"norad_id":63365,"intl_designator":"2025-063C","name":"STARLINK-33741","alt_names":[],"object_type":"PAYLOAD","status":"ACTIVE","operator":null,"country":"US","launch_date":"2025-03-26","launch_site_code":"AFWTR","launch_vehicle":null,"mission":null,"orbit_class":"UNKNOWN","rcs_meters":null,"size_class":null,"mass_kg":null,"dimensions":null,"purposes":["comms"],"wikipedia_slug":null,"has_3d_model":false,"image_url":null,"decayed_at":null,"tle_current":{"epoch":"2026-05-25T03:07:59.794752Z","epoch_age_seconds":59927,"freshness":"FRESH","line1":"1 63365U 25063C   26145.13055318  .00014185  00000+0  41680-3 0  9993","line2":"2 63365  53.1603  55.2213 0001319  88.0932 272.0222 15.35399067 66495","mean_motion":15.35399067,"eccentricity":0.0001319,"inclination_deg":53.1603,"raan_deg":55.2213,"arg_perigee_deg":88.0932,"mean_anomaly_deg":272.0222,"bstar":0.0004168,"rev_number":6649,"period_min":93.786692394805,"perigee_km":458.83349743437,"apogee_km":460.63732817687,"semimajor_km":6837.8724128056,"source":"CELESTRAK","updated_at":"2026-05-25T13:38:19.961706Z"}}}